Location: Hope
(40.9110°N, 74.9680°W)
Time: 05:20:47
(UTC-04:00)

Envisat - Pass Details

Date: 25 January 2019
Orbit: 764 x 766 km, 98.1° (Epoch: 15 October)

Event Time Altitude Azimuth Distance (km) Brightness Sun altitude
Rises 19:55:58 0° 206° (SSW) 3,219 6.5 -31.6°
Reaches altitude 10° 19:58:57 10° 224° (SW) 2,298 5.9 -32.2°
Maximum altitude 20:02:26 19° 268° (W) 1,785 5.6 -32.8°
Drops below altitude 10° 20:05:56 10° 312° (NW) 2,309 6.0 -33.5°
Sets 20:08:57 0° 331° (NNW) 3,240 6.6 -34.1°
